Location: Newark
(7.0858°N, 171.3717°E)
Time: 12:42:41
(UTC+00:00)

Vanguard 1 Rocket - Pass Details

Date: 05 December 2020
Orbit: 655 x 4222 km, 34.3° (Epoch: 23 January)

Event Time Altitude Azimuth Distance (km) Brightness Sun altitude
Exits shadow 14:48:44 29° 12° (NNE) 5,396 11.0 -52.2°
Drops below altitude 10° 15:00:46 10° 50° (NE) 5,907 11.6 -49.6°
Sets 15:05:33 0° 61° (ENE) 6,433 12.0 -48.5°
